Weather History for KEUF - September, 2012

Change the Weather History Date:

Wednesday, September 26, 2012

  Actual Average (KLSF) Record (KLSF)
Temperature  
Mean Temperature 74 °F -  
Max Temperature 89 °F 80 °F 91 °F (1998)
Min Temperature 59 °F 59 °F 41 °F (2001)
Cooling Degree Days 9    
Growing Degree Days 24 (Base 50)    
Moisture  
Dew Point 63 °F    
Average Humidity 71    
Maximum Humidity 93    
Minimum Humidity 40    
Precipitation  
Precipitation 0.01 in - - ()
Sea Level Pressure  
Sea Level Pressure 30.14 in    
Wind  
Wind Speed 2 mph (SE)    
Max Wind Speed 7 mph    
Max Gust Speed -    
Visibility 10 miles    
Events      
Averages and records for this station are not official NWS values.
T = Trace of Precipitation, MM = Missing Value Source: NWS Daily Summary

Daily Weather History Graph

Daily Weather History Graph

Search for Another Location

Airport or City:

Trip Planner

Search our weather history database for the weather conditions in past years. The results will help you decide how hot, cold, wet, or windy it might be!

Date:

Astronomy

Sep. 26, 2012 Rise Set
Actual Time 6:31 AM CDT 6:31 PM CDT
Civil Twilight 6:07 AM CDT 6:55 PM CDT
Nautical Twilight 5:38 AM CDT 7:23 PM CDT
Astronomical Twilight 5:10 AM CDT 7:52 PM CDT
Moon 4:21 PM CDT (9/26) 3:07 AM CDT (9/26)
Length of Visible Light 12h 48m
Length of Day
11h 59m
Waxing Gibbous, 88% of the Moon is Illuminated
Sep 26
Waxing Gibbous
Sep 29
Full
Oct 8
Last Quarter
Oct 15
New
Oct 21
First Quarter

Hourly Weather History & Observations

Time (CDT) Temp. Heat Index Dew Point Humidity Pressure Visibility Wind Dir Wind Speed Gust Speed Precip Events Conditions
12:58 AM 61.0 °F - 57.0 °F 87% 30.13 in 10.0 mi Calm Calm - 0.01 in   Clear
1:58 AM 69.1 °F - 59.0 °F 70% 30.13 in 10.0 mi SE 6.9 mph - N/A   Clear
2:58 AM 68.0 °F - 60.1 °F 76% 30.13 in 10.0 mi SE 6.9 mph - N/A   Clear
3:58 AM 66.0 °F - 59.0 °F 78% 30.13 in 10.0 mi Calm Calm - N/A   Clear
4:58 AM 64.9 °F - 57.9 °F 78% 30.14 in 10.0 mi Calm Calm - N/A   Clear
5:58 AM 59.0 °F - 57.0 °F 93% 30.16 in 10.0 mi Calm Calm - N/A   Clear
6:58 AM 60.1 °F - 57.9 °F 93% 30.17 in 10.0 mi Calm Calm - N/A   Clear
7:58 AM 69.1 °F - 62.1 °F 78% 30.18 in 10.0 mi Calm Calm - N/A   Clear
8:58 AM 75.0 °F - 63.0 °F 66% 30.18 in 10.0 mi SSE 4.6 mph - N/A   Clear
9:58 AM 79.0 °F - 62.1 °F 56% 30.18 in 10.0 mi Variable 4.6 mph - N/A   Clear
10:58 AM 81.0 °F 81.9 °F 62.1 °F 52% 30.19 in 10.0 mi Calm Calm - N/A   Clear
11:58 AM 84.0 °F 84.5 °F 62.1 °F 47% 30.16 in 10.0 mi Variable 3.5 mph - N/A   Clear
12:58 PM 86.0 °F 85.7 °F 60.1 °F 41% 30.14 in 10.0 mi Variable 4.6 mph - N/A   Clear
1:58 PM 89.1 °F 89.3 °F 62.1 °F 40% 30.12 in 10.0 mi East 4.6 mph - N/A   Clear
2:58 PM 87.1 °F 87.5 °F 62.1 °F 43% 30.10 in 10.0 mi Calm Calm - N/A   Clear
3:58 PM 87.1 °F 87.5 °F 62.1 °F 43% 30.09 in 10.0 mi South 4.6 mph - N/A   Mostly Cloudy
4:58 PM 84.9 °F 87.6 °F 66.9 °F 55% 30.09 in 10.0 mi Calm Calm - N/A   Overcast
5:58 PM 82.0 °F 85.9 °F 70.0 °F 67% 30.09 in 10.0 mi Calm Calm - N/A   Scattered Clouds
6:58 PM 75.0 °F - 70.0 °F 84% 30.10 in 10.0 mi Calm Calm - N/A   Mostly Cloudy
7:58 PM 72.0 °F - 69.1 °F 91% 30.12 in 10.0 mi Calm Calm - N/A   Partly Cloudy
8:58 PM 69.1 °F - 66.0 °F 90% 30.14 in 10.0 mi Calm Calm - N/A   Clear
9:58 PM 68.0 °F - 64.9 °F 90% 30.15 in 10.0 mi Calm Calm - N/A   Clear
10:58 PM 66.9 °F - 64.0 °F 90% 30.15 in 10.0 mi Calm Calm - N/A   Clear
11:58 PM 66.0 °F - 64.0 °F 93% 30.14 in 10.0 mi Calm Calm - N/A   Scattered Clouds